Live-Position
3D-Globus wird geladen...
Über Starlink 4429
Group: 3 satellites
Beschreibung wird geladen...
Nächste Überflüge
Passes for default location (London). Set your location on the main map for personalized predictions.
Höhenverlauf
Loading altitude history...
No altitude history available
Zweizeiliger Elementsatz
1 53495U 22099AG 26104.89066629 .00000133 00000-0 13419-4 0 9996
2 53495 97.6035 225.7723 0000820 97.3747 262.7573 15.05650426201428
Epoch: 14. Apr. 2026 •
Age: 7 hours
Aktueller Status
Höhe 555.3 km
Geschwindigkeit 7.58 km/s
Subsatellitenpunkt -13.23°S,
131.76°E
Startdatum 12. Aug. 2022
Alter 3.6 years
Typ internet
Startgruppe
Falcon 9 •
Group 3-3 •
40 satellites
Starlink 4415
53465
Starlink 4398 53466
Starlink 4394 53467
Starlink 4400 53468
Starlink 4399 53469
Starlink 4393 53470
Starlink 4447 53472
Starlink 4383 53473
Starlink 4445 53474
Starlink 4389 53475
Starlink 4378 53476
Starlink 4412 53477
Starlink 4433 53478
Starlink 4436 53479
Starlink 4442 53480
Starlink 4302 53481
Starlink 4360 53482
Starlink 4426 53484
Starlink 4430 53485
Starlink 4431 53486
...and 19 more
Technische Details
Klassifizierung Payload
Masse 300.00 kg
Trockenmasse 275.00 kg
Gesamtmasse 300.00 kg
Länge 0.20 m
Durchmesser 2.80 m
Spannweite 9.00 m
Form Box + pan
Hersteller SPXS
Bus-Typ Starlink
Phasenstatus In Orbit
Besitzer/Staat SPXS/US
Most Searched
Loading...